QPF
0.01 0.01 0.01 0.01 0.01 0.01 0.01 0.01 0.01 0.01 0.01 0.01 0.00 0.00 0.00 0.00 0.00 0.00 0.00 0.00 0.00 0.01 0.01 0.02 0.02 0.02 0.03 0.03 0.02 0.02 0.03 0.04 0.03 0.02 0.02 0.02 0.02 0.03 0.03 0.03 0.03 0.03 0.03 0.03
0.01 0.00 0.01 0.01 0.00 0.00 0.01 0.01 0.01 0.01 0.01 0.01 0.00 0.00 0.00 0.00 0.00 0.00 0.00 0.00 0.00 0.00 0.01 0.02 0.02 0.02 0.02 0.03 0.03 0.02 0.02 0.01 0.02 0.02 0.01 0.02 0.02 0.04 0.04 0.04 0.03 0.03 0.03 0.03
0.02 0.00 0.01 0.01 0.00 0.00 0.01 0.01 0.01 0.01 0.01 0.00 0.00 0.00 0.00 0.00 0.00 0.00 0.00 0.00 0.00 0.00 0.00 0.01 0.02 0.02 0.02 0.02 0.02 0.02 0.02 0.01 0.01 0.01 0.01 0.02 0.02 0.03 0.03 0.03 0.03 0.02 0.02 0.02
0.02 0.01 0.01 0.01 0.01 0.00 0.00 0.01 0.01 0.01 0.01 0.00 0.00 0.00 0.00 0.00 0.00 0.00 0.00 0.00 0.00 0.00 0.00 0.00 0.01 0.02 0.02 0.02 0.02 0.02 0.02 0.02 0.01 0.01 0.02 0.02 0.02 0.01 0.02 0.02 0.03 0.03 0.02 0.02
0.03 0.02 0.01 0.01 0.01 0.01 0.01 0.01 0.01 0.01 0.00 0.00 0.00 0.01 0.01 0.00 0.00 0.00 0.00 0.00 0.00 0.00 0.00 0.00 0.00 0.01 0.01 0.01 0.01 0.01 0.02 0.01 0.01 0.01 0.02 0.02 0.02 0.02 0.01 0.02 0.02 0.03 0.03 0.02
0.04 0.03 0.02 0.01 0.01 0.01 0.02 0.01 0.01 0.01 0.01 0.01 0.01 0.01 0.01 0.01 0.00 0.00 0.00 0.00 0.00 0.00 0.00 0.00 0.00 0.00 0.00 0.00 0.00 0.00 0.01 0.01 0.01 0.01 0.01 0.02 0.03 0.03 0.02 0.02 0.03 0.03 0.03 0.03
0.03 0.03 0.02 0.02 0.01 0.01 0.03 0.03 0.02 0.01 0.01 0.01 0.01 0.01 0.01 0.00 0.00 0.00 0.00 0.00 0.00 0.00 0.00 0.00 0.00 0.00 0.00 0.00 0.00 0.00 0.00 0.00 0.00 0.00 0.00 0.01 0.01 0.02 0.03 0.03 0.03 0.03 0.03 0.02
0.04 0.04 0.03 0.02 0.01 0.02 0.04 0.03 0.02 0.02 0.02 0.01 0.01 0.01 0.01 0.01 0.00 0.00 0.00 0.00 0.00 0.00 0.00 0.00 0.00 0.00 0.00 0.00 0.00 0.00 0.00 0.00 0.00 0.00 0.00 0.00 0.01 0.01 0.02 0.02 0.02 0.03 0.03 0.03
0.05 0.04 0.03 0.03 0.04 0.05 0.03 0.02 0.02 0.02 0.02 0.01 0.01 0.01 0.01 0.01 0.01 0.01 0.01 0.01 0.00 0.00 0.00 0.00 0.00 0.00 0.00 0.00 0.00 0.00 0.00 0.01 0.01 0.01 0.01 0.01 0.01 0.01 0.01 0.02 0.02 0.02 0.02 0.02
0.06 0.05 0.03 0.03 0.03 0.03 0.02 0.03 0.02 0.02 0.02 0.02 0.02 0.01 0.01 0.01 0.01 0.01 0.01 0.01 0.01 0.00 0.00 0.00 0.00 0.00 0.00 0.00 0.00 0.00 0.01 0.01 0.01 0.01 0.02 0.02 0.02 0.02 0.01 0.02 0.02 0.02 0.02 0.01
0.05 0.05 0.04 0.03 0.03 0.03 0.03 0.03 0.02 0.02 0.02 0.02 0.02 0.02 0.02 0.02 0.02 0.02 0.01 0.01 0.01 0.01 0.01 0.01 0.01 0.01 0.00 0.01 0.01 0.01 0.01 0.01 0.01 0.01 0.01 0.01 0.01 0.01 0.01 0.01 0.01 0.02 0.02 0.01
0.04 0.03 0.04 0.03 0.02 0.02 0.02 0.02 0.02 0.02 0.02 0.03 0.03 0.03 0.03 0.03 0.02 0.02 0.02 0.01 0.01 0.01 0.01 0.01 0.01 0.01 0.01 0.01 0.01 0.02 0.02 0.02 0.01 0.01 0.01 0.01 0.01 0.01 0.01 0.01 0.01 0.01 0.01 0.01
0.04 0.03 0.03 0.03 0.02 0.01 0.01 0.01 0.01 0.02 0.02 0.02 0.03 0.03 0.03 0.03 0.03 0.02 0.02 0.01 0.01 0.01 0.01 0.01 0.01 0.01 0.02 0.02 0.02 0.02 0.02 0.02 0.01 0.01 0.01 0.01 0.01 0.01 0.01 0.00 0.00 0.00 0.00 0.01
0.03 0.03 0.03 0.04 0.03 0.02 0.01 0.01 0.01 0.01 0.01 0.01 0.02 0.03 0.03 0.04 0.03 0.03 0.03 0.03 0.02 0.02 0.02 0.02 0.01 0.01 0.01 0.02 0.02 0.02 0.02 0.02 0.02 0.01 0.01 0.01 0.01 0.01 0.01 0.01 0.00 0.00 0.00 0.01
0.02 0.02 0.03 0.03 0.02 0.02 0.01 0.01 0.01 0.01 0.01 0.02 0.02 0.02 0.03 0.02 0.02 0.02 0.02 0.02 0.02 0.02 0.02 0.01 0.01 0.01 0.01 0.01 0.01 0.01 0.01 0.01 0.01 0.01 0.01 0.01 0.01 0.01 0.01 0.01 0.01 0.01 0.00 0.00
0.01 0.01 0.01 0.01 0.02 0.01 0.01 0.01 0.01 0.01 0.02 0.02 0.02 0.02 0.02 0.02 0.02 0.01 0.01 0.01 0.01 0.01 0.01 0.01 0.01 0.01 0.01 0.01 0.01 0.01 0.01 0.01 0.01 0.01 0.01 0.01 0.01 0.01 0.01 0.01 0.01 0.01 0.01 0.01
0.02 0.02 0.02 0.01 0.01 0.01 0.02 0.02 0.02 0.02 0.02 0.02 0.02 0.02 0.01 0.01 0.01 0.01 0.01 0.01 0.01 0.01 0.01 0.01 0.01 0.01 0.01 0.01 0.01 0.01 0.01 0.01 0.01 0.01 0.01 0.01 0.01 0.01 0.01 0.01 0.01 0.01 0.01 0.01
0.02 0.02 0.02 0.01 0.01 0.01 0.01 0.01 0.01 0.01 0.02 0.02 0.02 0.01 0.01 0.02 0.02 0.02 0.02 0.02 0.02 0.02 0.02 0.02 0.02 0.01 0.01 0.01 0.01 0.01 0.01 0.01 0.01 0.01 0.01 0.01 0.01 0.01 0.01 0.02 0.02 0.02 0.01 0.02
0.02 0.02 0.01 0.01 0.01 0.01 0.01 0.01 0.01 0.01 0.01 0.01 0.01 0.01 0.01 0.02 0.02 0.03 0.03 0.02 0.02 0.02 0.02 0.02 0.01 0.01 0.02 0.02 0.02 0.02 0.01 0.01 0.01 0.01 0.01 0.01 0.01 0.01 0.01 0.02 0.02 0.02 0.02 0.02
0.02 0.01 0.01 0.01 0.00 0.00 0.00 0.01 0.01 0.01 0.01 0.01 0.01 0.01 0.02 0.02 0.02 0.02 0.01 0.01 0.02 0.02 0.01 0.01 0.01 0.01 0.01 0.01 0.01 0.01 0.01 0.01 0.01 0.01 0.01 0.01 0.01 0.01 0.01 0.01 0.01 0.01 0.01 0.01
0.01 0.01 0.01 0.01 0.00 0.01 0.01 0.01 0.01 0.01 0.01 0.01 0.01 0.01 0.01 0.01 0.01 0.01 0.01 0.01 0.01 0.01 0.01 0.00 0.00 0.00 0.00 0.01 0.01 0.01 0.00 0.00 0.00 0.01 0.01 0.01 0.01 0.01 0.01 0.01 0.01 0.01 0.01 0.01
0.01 0.01 0.01 0.01 0.01 0.01 0.02 0.02 0.02 0.02 0.01 0.01 0.01 0.01 0.01 0.01 0.01 0.00 0.00 0.01 0.01 0.01 0.00 0.00 0.00 0.00 0.01 0.01 0.01 0.01 0.00 0.00 0.00 0.01 0.01 0.01 0.01 0.01 0.01 0.01 0.01 0.01 0.01 0.01
0.02 0.02 0.02 0.02 0.02 0.02 0.02 0.01 0.01 0.01 0.01 0.01 0.01 0.01 0.01 0.01 0.01 0.01 0.01 0.01 0.01 0.01 0.01 0.01 0.01 0.01 0.01 0.01 0.00 0.00 0.00 0.00 0.00 0.01 0.01 0.01 0.01 0.01 0.01 0.01 0.01 0.01 0.01 0.01
0.02 0.02 0.02 0.02 0.01 0.01 0.01 0.01 0.01 0.01 0.01 0.01 0.01 0.01 0.01 0.01 0.01 0.01 0.01 0.01 0.01 0.01 0.01 0.01 0.01 0.01 0.01 0.01 0.01 0.01 0.01 0.01 0.01 0.01 0.01 0.01 0.01 0.01 0.01 0.01 0.01 0.01 0.01 0.01
0.02 0.02 0.01 0.01 0.01 0.01 0.01 0.01 0.01 0.01 0.00 0.00 0.00 0.01 0.01 0.01 0.01 0.01 0.01 0.00 0.00 0.00 0.00 0.00 0.00 0.00 0.00 0.00 0.01 0.01 0.01 0.01 0.01 0.01 0.01 0.01 0.01 0.01 0.01 0.01 0.01 0.01 0.01 0.01
0.01 0.01 0.01 0.01 0.01 0.01 0.01 0.01 0.00 0.00 0.00 0.00 0.00 0.00 0.00 0.00 0.01 0.00 0.00 0.00 0.00 0.00 0.00 0.00 0.00 0.00 0.00 0.00 0.00 0.00 0.00 0.00 0.01 0.01 0.01 0.01 0.01 0.01 0.00 0.00 0.00 0.00 0.01 0.01
0.01 0.01 0.01 0.01 0.01 0.00 0.00 0.00 0.00 0.00 0.00 0.00 0.00 0.00 0.00 0.00 0.00 0.00 0.00 0.00 0.00 0.00 0.00 0.00 0.00 0.00 0.00 0.00 0.01 0.00 0.00 0.01 0.01 0.01 0.01 0.01 0.01 0.01 0.00 0.00 0.00 0.00 0.01 0.01
MSLP
1023.20 1023.24 1023.30 1023.34 1023.32 1023.21 1022.97 1022.58 1022.04 1021.37 1020.63 1019.88 1019.19 1018.64 1018.26 1018.08 1018.10 1018.26 1018.52 1018.79 1018.99 1019.07 1018.97 1018.68 1018.20 1017.58 1016.84 1016.05 1015.26 1014.51 1013.83 1013.23 1012.73 1012.33 1012.01 1011.78 1011.63 1011.57 1011.60 1011.74 1011.98 1012.32 1012.75 1013.26
1023.03 1022.97 1022.90 1022.82 1022.70 1022.50 1022.22 1021.82 1021.32 1020.72 1020.08 1019.44 1018.86 1018.40 1018.09 1017.94 1017.96 1018.10 1018.32 1018.56 1018.76 1018.84 1018.79 1018.57 1018.20 1017.69 1017.07 1016.38 1015.67 1014.96 1014.29 1013.67 1013.11 1012.61 1012.18 1011.82 1011.55 1011.36 1011.28 1011.31 1011.47 1011.74 1012.12 1012.59
1022.76 1022.60 1022.43 1022.25 1022.04 1021.79 1021.48 1021.10 1020.66 1020.16 1019.64 1019.12 1018.66 1018.29 1018.05 1017.93 1017.94 1018.05 1018.23 1018.43 1018.59 1018.67 1018.64 1018.48 1018.19 1017.78 1017.27 1016.68 1016.06 1015.41 1014.77 1014.14 1013.54 1012.97 1012.44 1011.98 1011.58 1011.27 1011.07 1010.99 1011.04 1011.21 1011.51 1011.92
1022.46 1022.22 1021.97 1021.72 1021.46 1021.18 1020.88 1020.55 1020.18 1019.79 1019.39 1019.00 1018.65 1018.38 1018.19 1018.10 1018.10 1018.17 1018.30 1018.44 1018.56 1018.61 1018.58 1018.45 1018.22 1017.88 1017.45 1016.96 1016.41 1015.82 1015.21 1014.59 1013.96 1013.35 1012.76 1012.20 1011.71 1011.29 1010.98 1010.78 1010.72 1010.78 1010.98 1011.29
1022.18 1021.89 1021.61 1021.33 1021.06 1020.80 1020.54 1020.27 1019.98 1019.69 1019.40 1019.12 1018.87 1018.67 1018.53 1018.45 1018.44 1018.48 1018.55 1018.63 1018.69 1018.70 1018.65 1018.52 1018.31 1018.01 1017.64 1017.20 1016.69 1016.15 1015.57 1014.96 1014.33 1013.69 1013.06 1012.45 1011.89 1011.39 1010.98 1010.69 1010.51 1010.46 1010.55 1010.75
1021.97 1021.69 1021.41 1021.16 1020.92 1020.70 1020.50 1020.30 1020.10 1019.89 1019.69 1019.49 1019.31 1019.16 1019.05 1018.97 1018.94 1018.94 1018.96 1018.98 1018.98 1018.94 1018.85 1018.70 1018.47 1018.17 1017.81 1017.39 1016.91 1016.39 1015.82 1015.22 1014.60 1013.95 1013.31 1012.68 1012.07 1011.52 1011.05 1010.67 1010.40 1010.25 1010.22 1010.31
1021.90 1021.65 1021.43 1021.23 1021.06 1020.92 1020.78 1020.65 1020.52 1020.38 1020.23 1020.08 1019.94 1019.81 1019.70 1019.61 1019.55 1019.50 1019.47 1019.43 1019.37 1019.28 1019.14 1018.94 1018.68 1018.35 1017.97 1017.53 1017.04 1016.51 1015.95 1015.36 1014.74 1014.11 1013.47 1012.83 1012.22 1011.65 1011.13 1010.69 1010.35 1010.10 1009.97 1009.96
1021.97 1021.80 1021.67 1021.56 1021.48 1021.41 1021.35 1021.28 1021.19 1021.08 1020.96 1020.82 1020.67 1020.53 1020.39 1020.28 1020.18 1020.09 1020.01 1019.92 1019.81 1019.66 1019.46 1019.20 1018.89 1018.51 1018.08 1017.60 1017.08 1016.53 1015.96 1015.36 1014.76 1014.14 1013.52 1012.90 1012.30 1011.72 1011.19 1010.71 1010.30 1009.99 1009.77 1009.66
1022.21 1022.14 1022.10 1022.10 1022.11 1022.12 1022.12 1022.09 1022.02 1021.91 1021.77 1021.60 1021.42 1021.23 1021.05 1020.89 1020.74 1020.61 1020.49 1020.36 1020.20 1020.00 1019.76 1019.44 1019.07 1018.63 1018.14 1017.61 1017.04 1016.46 1015.86 1015.26 1014.66 1014.06 1013.46 1012.87 1012.29 1011.72 1011.18 1010.67 1010.23 1009.85 1009.56 1009.38
1022.58 1022.61 1022.68 1022.77 1022.87 1022.94 1022.98 1022.97 1022.89 1022.76 1022.57 1022.34 1022.09 1021.84 1021.60 1021.38 1021.18 1021.01 1020.85 1020.68 1020.49 1020.26 1019.96 1019.60 1019.17 1018.68 1018.13 1017.54 1016.93 1016.31 1015.68 1015.07 1014.47 1013.88 1013.31 1012.73 1012.17 1011.61 1011.06 1010.54 1010.07 1009.64 1009.30 1009.05
1023.05 1023.17 1023.33 1023.50 1023.66 1023.78 1023.83 1023.81 1023.70 1023.52 1023.26 1022.96 1022.63 1022.30 1021.98 1021.70 1021.46 1021.24 1021.05 1020.85 1020.64 1020.38 1020.05 1019.66 1019.19 1018.65 1018.05 1017.42 1016.76 1016.10 1015.45 1014.82 1014.21 1013.63 1013.06 1012.49 1011.94 1011.38 1010.83 1010.29 1009.78 1009.32 1008.94 1008.64
1023.58 1023.77 1023.99 1024.21 1024.40 1024.53 1024.58 1024.53 1024.37 1024.12 1023.79 1023.41 1023.00 1022.59 1022.20 1021.86 1021.57 1021.32 1021.09 1020.88 1020.64 1020.36 1020.02 1019.60 1019.10 1018.53 1017.90 1017.23 1016.54 1015.85 1015.17 1014.52 1013.90 1013.31 1012.73 1012.16 1011.59 1011.02 1010.45 1009.89 1009.35 1008.86 1008.44 1008.11
1024.11 1024.35 1024.60 1024.84 1025.03 1025.15 1025.17 1025.08 1024.87 1024.56 1024.16 1023.70 1023.22 1022.74 1022.30 1021.90 1021.56 1021.27 1021.02 1020.78 1020.53 1020.24 1019.88 1019.45 1018.94 1018.35 1017.70 1017.00 1016.29 1015.57 1014.87 1014.20 1013.55 1012.94 1012.33 1011.74 1011.15 1010.55 1009.95 1009.36 1008.79 1008.27 1007.82 1007.47
1024.63 1024.88 1025.13 1025.36 1025.54 1025.62 1025.60 1025.47 1025.21 1024.84 1024.39 1023.88 1023.34 1022.81 1022.32 1021.88 1021.50 1021.18 1020.90 1020.64 1020.36 1020.05 1019.68 1019.24 1018.71 1018.11 1017.45 1016.74 1016.01 1015.28 1014.55 1013.85 1013.18 1012.52 1011.89 1011.25 1010.62 1009.99 1009.35 1008.72 1008.13 1007.58 1007.12 1006.76
1025.12 1025.36 1025.59 1025.79 1025.92 1025.97 1025.90 1025.72 1025.43 1025.02 1024.53 1023.99 1023.42 1022.87 1022.34 1021.87 1021.46 1021.10 1020.79 1020.49 1020.19 1019.85 1019.46 1019.00 1018.46 1017.85 1017.18 1016.46 1015.72 1014.96 1014.22 1013.49 1012.78 1012.09 1011.41 1010.73 1010.05 1009.38 1008.70 1008.05 1007.43 1006.87 1006.41 1006.05
1025.57 1025.79 1025.98 1026.13 1026.22 1026.22 1026.11 1025.90 1025.57 1025.15 1024.65 1024.10 1023.52 1022.95 1022.41 1021.92 1021.48 1021.09 1020.73 1020.40 1020.05 1019.68 1019.25 1018.76 1018.21 1017.58 1016.90 1016.17 1015.42 1014.65 1013.88 1013.13 1012.38 1011.65 1010.93 1010.21 1009.49 1008.78 1008.08 1007.40 1006.77 1006.22 1005.76 1005.43
1026.00 1026.18 1026.33 1026.43 1026.46 1026.41 1026.27 1026.02 1025.68 1025.26 1024.76 1024.22 1023.66 1023.09 1022.55 1022.04 1021.58 1021.16 1020.76 1020.37 1019.97 1019.55 1019.09 1018.56 1017.98 1017.34 1016.64 1015.90 1015.13 1014.35 1013.57 1012.79 1012.01 1011.25 1010.49 1009.74 1008.99 1008.25 1007.54 1006.87 1006.25 1005.72 1005.29 1004.99
1026.40 1026.54 1026.64 1026.69 1026.67 1026.57 1026.40 1026.13 1025.79 1025.37 1024.89 1024.37 1023.82 1023.28 1022.74 1022.23 1021.74 1021.28 1020.84 1020.40 1019.96 1019.48 1018.97 1018.40 1017.79 1017.12 1016.41 1015.66 1014.88 1014.08 1013.29 1012.49 1011.70 1010.91 1010.13 1009.37 1008.61 1007.88 1007.17 1006.52 1005.93 1005.44 1005.05 1004.79
1026.76 1026.86 1026.92 1026.91 1026.84 1026.70 1026.49 1026.21 1025.86 1025.46 1025.00 1024.50 1023.98 1023.46 1022.93 1022.42 1021.92 1021.43 1020.95 1020.47 1019.97 1019.44 1018.88 1018.28 1017.63 1016.94 1016.21 1015.45 1014.67 1013.87 1013.07 1012.27 1011.47 1010.68 1009.90 1009.14 1008.40 1007.69 1007.03 1006.42 1005.88 1005.44 1005.11 1004.90
1027.06 1027.13 1027.14 1027.08 1026.96 1026.78 1026.54 1026.24 1025.88 1025.48 1025.04 1024.57 1024.08 1023.57 1023.06 1022.55 1022.04 1021.53 1021.02 1020.50 1019.96 1019.40 1018.80 1018.16 1017.49 1016.79 1016.05 1015.28 1014.50 1013.71 1012.92 1012.12 1011.34 1010.57 1009.81 1009.08 1008.38 1007.72 1007.11 1006.56 1006.09 1005.71 1005.45 1005.30
1027.28 1027.31 1027.27 1027.17 1027.00 1026.78 1026.50 1026.18 1025.81 1025.41 1024.98 1024.52 1024.04 1023.56 1023.06 1022.56 1022.05 1021.53 1021.00 1020.46 1019.89 1019.30 1018.68 1018.03 1017.35 1016.64 1015.90 1015.14 1014.37 1013.60 1012.82 1012.05 1011.30 1010.56 1009.85 1009.17 1008.53 1007.93 1007.39 1006.92 1006.53 1006.22 1006.02 1005.93
1027.40 1027.39 1027.31 1027.16 1026.94 1026.67 1026.35 1026.00 1025.61 1025.20 1024.76 1024.32 1023.85 1023.38 1022.89 1022.40 1021.90 1021.38 1020.85 1020.29 1019.72 1019.12 1018.50 1017.84 1017.16 1016.46 1015.73 1015.00 1014.25 1013.50 1012.76 1012.03 1011.32 1010.64 1009.99 1009.37 1008.80 1008.28 1007.83 1007.44 1007.12 1006.90 1006.76 1006.72
1027.42 1027.37 1027.24 1027.04 1026.77 1026.45 1026.09 1025.70 1025.29 1024.85 1024.41 1023.95 1023.49 1023.02 1022.55 1022.06 1021.57 1021.06 1020.53 1019.99 1019.42 1018.83 1018.21 1017.57 1016.91 1016.22 1015.52 1014.82 1014.11 1013.40 1012.71 1012.03 1011.38 1010.76 1010.17 1009.64 1009.15 1008.71 1008.34 1008.03 1007.80 1007.64 1007.56 1007.56
1027.34 1027.25 1027.08 1026.83 1026.52 1026.15 1025.74 1025.31 1024.85 1024.39 1023.92 1023.45 1022.98 1022.51 1022.04 1021.57 1021.08 1020.58 1020.07 1019.54 1018.99 1018.42 1017.82 1017.20 1016.56 1015.91 1015.25 1014.58 1013.92 1013.27 1012.63 1012.01 1011.42 1010.87 1010.37 1009.91 1009.50 1009.15 1008.86 1008.63 1008.47 1008.37 1008.34 1008.37
1027.22 1027.08 1026.86 1026.57 1026.20 1025.79 1025.33 1024.86 1024.36 1023.86 1023.36 1022.87 1022.39 1021.91 1021.44 1020.96 1020.48 1020.00 1019.50 1018.98 1018.45 1017.90 1017.33 1016.74 1016.14 1015.52 1014.90 1014.28 1013.67 1013.07 1012.50 1011.95 1011.43 1010.95 1010.52 1010.14 1009.82 1009.54 1009.33 1009.17 1009.07 1009.02 1009.03 1009.09
1027.08 1026.90 1026.64 1026.29 1025.88 1025.42 1024.92 1024.40 1023.86 1023.32 1022.79 1022.27 1021.77 1021.27 1020.79 1020.31 1019.83 1019.35 1018.86 1018.36 1017.84 1017.32 1016.77 1016.21 1015.65 1015.07 1014.50 1013.93 1013.37 1012.83 1012.32 1011.84 1011.39 1010.99 1010.63 1010.32 1010.07 1009.86 1009.71 1009.61 1009.55 1009.55 1009.59 1009.67
1026.97 1026.74 1026.42 1026.03 1025.58 1025.07 1024.53 1023.97 1023.40 1022.83 1022.26 1021.72 1021.18 1020.67 1020.17 1019.68 1019.19 1018.71 1018.22 1017.73 1017.23 1016.72 1016.20 1015.67 1015.14 1014.60 1014.07 1013.55 1013.05 1012.57 1012.11 1011.70 1011.32 1010.98 1010.69 1010.44 1010.25 1010.10 1009.99 1009.93 1009.92 1009.94 1010.00 1010.10
Thickness
5464 5469 5468 5471 5474 5472 5471 5472 5474 5486 5488 5499 5496 5494 5491 5489 5486 5485 5484 5483 5482 5480 5480 5481 5482 5484 5485 5486 5487 5487 5486 5486 5486 5486 5486 5485 5485 5485 5485 5485 5485 5484 5484 5484
5449 5458 5459 5463 5468 5469 5472 5473 5473 5478 5483 5487 5484 5482 5480 5479 5478 5476 5475 5474 5472 5472 5472 5472 5473 5475 5476 5477 5477 5477 5478 5477 5477 5477 5477 5477 5476 5476 5476 5476 5475 5475 5474 5474
5436 5444 5448 5452 5461 5463 5464 5464 5466 5467 5473 5472 5471 5471 5470 5469 5467 5466 5466 5465 5463 5462 5462 5463 5463 5465 5467 5468 5468 5468 5468 5468 5468 5467 5467 5467 5467 5466 5466 5466 5466 5465 5465 5465
5418 5426 5428 5455 5456 5457 5456 5457 5455 5457 5459 5459 5460 5460 5458 5457 5456 5456 5456 5456 5455 5454 5454 5454 5454 5455 5457 5458 5458 5458 5458 5458 5458 5458 5458 5457 5457 5456 5456 5456 5456 5455 5455 5455
5409 5414 5428 5440 5443 5441 5442 5447 5446 5447 5448 5446 5444 5446 5447 5448 5446 5446 5446 5445 5445 5444 5444 5444 5445 5446 5447 5447 5447 5448 5448 5448 5448 5448 5448 5447 5447 5447 5446 5446 5446 5445 5445 5445
5403 5409 5419 5431 5432 5433 5436 5435 5437 5435 5434 5432 5433 5434 5439 5438 5436 5436 5436 5434 5434 5434 5434 5434 5435 5436 5437 5436 5436 5437 5438 5438 5438 5438 5438 5438 5437 5437 5436 5436 5435 5435 5435 5435
5396 5399 5409 5414 5417 5425 5422 5424 5423 5422 5422 5420 5420 5422 5423 5423 5423 5423 5423 5423 5423 5422 5422 5422 5423 5424 5425 5425 5425 5426 5427 5428 5428 5428 5428 5427 5427 5426 5426 5425 5425 5424 5423 5423
5386 5388 5398 5401 5403 5403 5403 5405 5406 5408 5409 5407 5406 5407 5408 5409 5409 5409 5409 5410 5410 5410 5409 5409 5410 5412 5412 5412 5414 5415 5416 5417 5417 5417 5417 5417 5416 5415 5415 5414 5413 5412 5411 5411
5381 5387 5387 5386 5388 5388 5388 5390 5392 5393 5394 5394 5393 5394 5395 5395 5395 5395 5395 5395 5396 5396 5397 5397 5397 5398 5400 5400 5402 5404 5404 5405 5406 5406 5406 5406 5405 5404 5402 5402 5400 5399 5398 5397
5368 5373 5373 5373 5373 5374 5375 5376 5377 5378 5379 5380 5380 5380 5380 5380 5381 5381 5381 5381 5382 5382 5383 5383 5384 5385 5386 5388 5390 5391 5392 5393 5394 5394 5394 5394 5393 5392 5390 5389 5387 5386 5385 5384
5355 5359 5360 5362 5360 5360 5362 5363 5364 5365 5365 5366 5366 5366 5366 5367 5367 5367 5368 5368 5368 5369 5370 5370 5371 5373 5374 5376 5378 5379 5380 5381 5381 5381 5381 5381 5380 5378 5377 5376 5375 5374 5373 5372
5346 5349 5347 5349 5348 5348 5349 5350 5351 5351 5352 5352 5352 5352 5353 5353 5353 5354 5354 5355 5355 5356 5357 5358 5359 5360 5362 5363 5365 5366 5367 5367 5367 5368 5368 5367 5366 5365 5364 5363 5363 5362 5361 5360
5336 5336 5335 5337 5336 5336 5336 5338 5339 5340 5339 5339 5339 5339 5340 5339 5340 5340 5341 5341 5342 5342 5343 5345 5346 5347 5349 5351 5352 5353 5354 5354 5354 5354 5354 5353 5352 5352 5351 5351 5350 5349 5349 5349
5323 5324 5325 5325 5325 5325 5325 5326 5327 5327 5326 5326 5326 5327 5326 5326 5327 5327 5328 5329 5329 5330 5330 5332 5333 5335 5337 5339 5340 5341 5342 5342 5342 5342 5341 5340 5339 5338 5337 5337 5337 5336 5337 5336
5313 5314 5315 5315 5315 5314 5314 5315 5315 5314 5313 5313 5313 5314 5314 5314 5314 5314 5315 5316 5317 5318 5318 5319 5321 5323 5325 5327 5328 5329 5329 5329 5329 5329 5329 5328 5327 5326 5325 5324 5324 5323 5323 5323
5304 5305 5305 5305 5304 5303 5302 5302 5302 5302 5302 5302 5301 5301 5301 5301 5302 5302 5303 5304 5305 5306 5307 5307 5309 5310 5312 5314 5316 5316 5316 5317 5318 5317 5317 5316 5315 5314 5313 5312 5312 5311 5311 5310
5295 5294 5294 5294 5293 5292 5291 5291 5291 5291 5290 5290 5290 5290 5290 5290 5291 5291 5291 5291 5292 5293 5294 5295 5297 5299 5300 5302 5303 5303 5304 5304 5305 5305 5304 5304 5303 5302 5301 5300 5300 5299 5298 5298
5287 5287 5286 5285 5284 5282 5282 5281 5281 5280 5280 5279 5279 5279 5279 5279 5279 5279 5280 5280 5281 5281 5282 5283 5285 5287 5288 5289 5290 5291 5291 5291 5292 5292 5292 5291 5291 5290 5289 5288 5287 5287 5287 5287
5278 5277 5276 5276 5274 5273 5272 5271 5271 5270 5269 5269 5269 5268 5268 5268 5267 5267 5268 5268 5269 5269 5270 5271 5274 5276 5276 5277 5278 5279 5279 5279 5280 5280 5279 5280 5279 5278 5277 5276 5276 5275 5275 5275
5268 5268 5267 5266 5265 5264 5263 5262 5261 5260 5259 5259 5259 5258 5258 5258 5257 5257 5257 5256 5256 5257 5259 5261 5263 5264 5265 5265 5267 5267 5267 5267 5267 5267 5267 5266 5266 5266 5265 5265 5264 5264 5263 5263
5259 5258 5258 5257 5255 5254 5252 5251 5251 5250 5250 5250 5249 5249 5248 5247 5247 5246 5246 5248 5248 5249 5250 5251 5252 5253 5254 5255 5256 5256 5255 5255 5255 5255 5254 5254 5254 5254 5254 5253 5253 5253 5253 5252
5249 5249 5248 5247 5245 5243 5242 5241 5241 5241 5240 5240 5240 5239 5238 5238 5237 5237 5237 5237 5238 5239 5240 5240 5241 5243 5244 5245 5245 5244 5244 5243 5243 5243 5242 5242 5242 5242 5242 5242 5242 5242 5242 5241
5240 5239 5238 5237 5235 5233 5232 5232 5231 5231 5231 5230 5230 5230 5229 5228 5228 5228 5228 5228 5228 5230 5230 5230 5231 5233 5234 5233 5233 5232 5232 5232 5232 5232 5232 5232 5231 5231 5231 5231 5231 5232 5232 5232
5231 5230 5228 5226 5225 5224 5223 5223 5223 5223 5222 5222 5221 5221 5220 5220 5219 5218 5218 5219 5220 5221 5221 5221 5223 5223 5223 5222 5221 5221 5222 5222 5222 5221 5221 5222 5221 5221 5221 5221 5222 5222 5223 5223
5221 5219 5218 5217 5216 5216 5215 5214 5214 5214 5214 5213 5213 5212 5211 5211 5210 5210 5210 5210 5212 5212 5212 5212 5213 5213 5212 5211 5211 5211 5212 5212 5213 5213 5213 5212 5212 5212 5213 5213 5214 5214 5215 5215
5212 5211 5209 5208 5207 5206 5206 5206 5205 5205 5205 5205 5204 5204 5203 5203 5202 5202 5202 5203 5203 5204 5203 5203 5203 5203 5202 5202 5202 5202 5203 5203 5204 5204 5204 5205 5205 5205 5206 5207 5207 5208 5208 5209
5203 5202 5201 5200 5199 5198 5197 5197 5197 5196 5196 5196 5196 5196 5195 5195 5195 5195 5195 5195 5195 5195 5195 5195 5195 5194 5194 5194 5194 5194 5195 5195 5196 5197 5197 5198 5199 5199 5200 5201 5201 5202 5203 5204